Location: Condor
(52.3263°N, 114.5541°W)
Time: 01:07:02
(UTC+00:00)

SO-50 - Pass Details

Date: 10 December 2023
Orbit: 608 x 661 km, 64.6° (Epoch: 28 February)

Event Time Altitude Azimuth Distance (km) Brightness Sun altitude
Exits shadow 11:39:13 13° 33° (NNE) 1,863 ? -34.9°
Drops below altitude 10° 11:39:49 10° 36° (NE) 2,079 ? -34.8°
Sets 11:42:08 0° 44° (NE) 2,943 ? -34.4°
